This is the latest recevied weather packets stored in our database for station/object KE8DDT-7. If no packets are shown the sender has not sent any weather packets the latest 10 day(s).
| Time | Temp. | Humidity | Pressure | Rain* | Wind** | Luminosity | Snow |
|---|---|---|---|---|---|---|---|
| 1777821546 | 11.67° C | 48% | 1005.3 hPa | 0 mm | - | 146 W/m² | - |
| 1777821247 | 11.67° C | 47% | 1005.2 hPa | 0 mm | - | 160 W/m² | - |
| 1777820946 | 11.67° C | 47% | 1005.3 hPa | 0 mm | - | 151 W/m² | - |
| 1777820646 | 12.22° C | 46% | 1005.4 hPa | 0 mm | - | 121 W/m² | - |
| 1777820346 | 12.22° C | 45% | 1005.3 hPa | 0 mm | - | 113 W/m² | - |
| 1777820046 | 12.78° C | 45% | 1005.4 hPa | 0 mm | - | 162 W/m² | - |
| 1777819746 | 12.78° C | 44% | 1005.2 hPa | 0 mm | - | 195 W/m² | - |
| 1777819446 | 13.33° C | 43% | 1005.1 hPa | 0 mm | - | 283 W/m² | - |
| 1777819146 | 13.33° C | 44% | 1005.2 hPa | 0 mm | - | 758 W/m² | - |
| 1777818846 | 13.33° C | 44% | 1005.3 hPa | 0 mm | - | 526 W/m² | - |
| 1777818546 | 12.78° C | 45% | 1005.1 hPa | 0 mm | - | 786 W/m² | - |
| 1777818246 | 12.78° C | 44% | 1005.2 hPa | 0 mm | - | 689 W/m² | - |
| 1777817946 | 12.78° C | 45% | 1005.3 hPa | 0 mm | - | 671 W/m² | - |
| 1777817646 | 12.78° C | 44% | 1005.4 hPa | 0 mm | - | 214 W/m² | - |
| 1777817346 | 12.78° C | 47% | 1005.3 hPa | 0 mm | - | 726 W/m² | - |
| 1777817046 | 12.22° C | 47% | 1005.4 hPa | 0 mm | - | 649 W/m² | - |
| 1777816446 | 12.22° C | 47% | 1005.5 hPa | 0 mm | - | 601 W/m² | - |
| 1777816146 | 12.22° C | 46% | 1005.4 hPa | 0 mm | - | 584 W/m² | - |
| 1777815846 | 11.67° C | 47% | 1005.5 hPa | 0 mm | - | 566 W/m² | - |
| 1777815546 | 11.67° C | 49% | 1005.5 hPa | 0 mm | - | 543 W/m² | - |
| 1777815246 | 11.11° C | 49% | 1005.5 hPa | 0 mm | - | 538 W/m² | - |
| 1777814646 | 10.56° C | 50% | 1005.6 hPa | 0 mm | - | 499 W/m² | - |
| 1777814346 | 10.56° C | 50% | 1005.5 hPa | 0 mm | - | 490 W/m² | - |
| 1777814046 | 10° C | 51% | 1005.6 hPa | 0 mm | - | 462 W/m² | - |
| 1777813746 | 10° C | 53% | 1005.6 hPa | 0 mm | - | 459 W/m² | - |
* Rain latest hour (hover to see other rain measurements)
** Current wind speed in m/s (hover to see current wind gust speed)